Regional Weather Roundup
Issued by NWS Northern Indiana

Home | Current Version | Previous Version | Graphics & Text | Print | Product List | Glossary On
Versions: 1 2 3 4 5 6 7 8 9 10 11 12 13 14 15 16 17 18 19 20 21 22 23 24 25 26 27 28 29 30 31 32 33 34 35 36 37 38 39 40 41 42 43 44 45 46 47 48 49 50
000
ASUS43 KIWX 291510
RWRIWX

KIWX WEATHER ROUNDUP
NATIONAL WEATHER SERVICE NORTHERN INDIANA
1000 AM EST THU JAN 29 2015

NOTE: "FAIR" INDICATES FEW OR NO CLOUDS BELOW 12,000 FEET WITH NO
SIGNIFICANT WEATHER AND/OR OBSTRUCTIONS TO VISIBILITY.

* THESE STATIONS ARE NOT UNDER NWS QUALITY CONTROL. THEY ALSO MAY NOT
  REPORT WEATHER SUCH AS PRECIPITATION OR FOG.

INZ001>027-291600-
NORTHERN INDIANA

CITY           SKY/WX    TMP DP  RH WIND       PRES   REMARKS
GARY*          CLOUDY    39  27  60 NW14G26   29.78R
VALPARAISO     CLOUDY    36  29  75 NW10G24   29.76R
MICHIGAN CITY* CLOUDY    36  27  69 W8        29.77R
LAPORTE*       CLOUDY    38  31  77 NW10G17   29.75R
KNOX*          CLOUDY    36  22  58 W9        29.74R
SOUTH BEND     CLOUDY    36  28  73 W7        29.74R
GOSHEN         CLOUDY    35  29  78 SW7       29.72R WCI  29
MONTICELLO*    CLOUDY    38  34  87 W12       29.74R
LOGANSPORT*    CLOUDY    36  32  87 SW8       29.75R
ROCHESTER*     CLOUDY    39  34  81 SW6       29.74R
WARSAW*        FLURRIES  37  30  75 SW6       29.72S
ANGOLA*        CLOUDY    34  28  80 S3        29.72S
FORT WAYNE     CLOUDY    38  31  76 SW14      29.75R
HUNTINGTON*    CLOUDY    40  28  63 SW12      29.74R
PERU/GRISSOM   CLOUDY    38  32  79 SW13      29.73S
MARION*        CLOUDY    37  31  76 SW15      29.76S

$$
INZ028>050-291600-
CENTRAL INDIANA

CITY           SKY/WX    TMP DP  RH WIND       PRES   REMARKS
LAFAYETTE      CLOUDY    39  34  82 W15G25    29.77R
KOKOMO*        CLOUDY    37  30  75 SW13      29.75S
MUNCIE*        CLOUDY    41  32  70 SW10      29.76R
INDIANAPOLIS   CLOUDY    44  35  70 SW21G36   29.78R

$$
MIZ043>046-050>051-056>058-064>065-071>073-077>080-291600-
SOUTHWEST LOWER MICHIGAN

CITY           SKY/WX    TMP DP  RH WIND       PRES   REMARKS
BATTLE CREEK   CLOUDY    34  25  69 S5        29.72F WCI  30
BENTON HARBOR  CLOUDY    34  30  85 W9        29.75R WCI  27
COLDWATER*     CLOUDY    33  26  76 S5        29.72S WCI  29
HILLSDALE*     CLOUDY    31  27  85 S6        29.71F WCI  25
HOLLAND        CLOUDY    34  27  75 CALM      29.75R
GRAND RAPIDS   CLOUDY    30  27  88 N5        29.74S FOG     WCI  25
KALAMAZOO      CLOUDY    33  26  75 S5        29.72S WCI  29
STURGIS*       CLOUDY    34  28  80 CALM      29.71F
THREE RIVERS*  CLOUDY    34  28  79 CALM      29.72S

$$
OHZ001>008-015>018-024>025-291600-
NORTHWEST OHIO

CITY           SKY/WX    TMP DP  RH WIND       PRES   REMARKS
WAUSEON*       CLOUDY    36  30  80 S9        29.75F
DEFIANCE       CLOUDY    37  29  72 S10       29.75F
FINDLAY        CLOUDY    38  30  73 S22       29.77F
TOLEDO EXPRESS CLOUDY    35  28  75 S6        29.76F WCI  30
TOLEDO METCALF CLOUDY    35  27  72 S12       29.77F WCI  27
LIMA           CLOUDY    40  29  64 S17G25    29.77F

$$
AND FOR LAKE MICHIGAN COASTAL AND OPEN LAKE BUOY OBSERVATIONS

STATION/POSITION TEMP    WIND        PRES    VSBY  WAVE
                 AIR SEA DIR/SP/G                  HT/PER
                 (F)     (DEG/KT/KT) (MB)    (MI)  (FT/S)
CALUMET HARBOR    36     300/ 15/ 21   N/A
MICHIGAN CITY     34     260/ 12/ 13   N/A
SAINT JOSEPH      36     270/  9/ 12 1008.5R

$$
&&



USA.gov is the U.S. government's official web portal to all federal, state and local government web resources and services.